Find Yaogan Weixing 28

NORAD ID: 41026 Int'l Des: 2015-064 Owner: ZZB Country: CN Constellation: yaogan operational
別名: YAOGAN 28 spacetrack, celestrak
LEOCIRCULARRETROGRADESSO

現在のビュー

3D地球を読み込み中...

About Yaogan Weixing 28

Yaogan Weixing 28 (NORAD 41026) is a yaogan constellation satellite launched Nov 8, 2015 by ZZB of CN. It operates in LEO, CIRCULAR, RETROGRADE, SSO orbit with a mass of 3000.00 kg.

次回通過

Passes for default location (London). Set your location on the main map for personalized predictions.

高度履歴

Loading altitude history...

軌道要素

1 41026U 15064A 26250.64565850 .00005988 00000-0 21935-3 0 9996
2 41026 97.3180 27.3381 0008890 256.8871 103.1377 15.28348908603277
Epoch: Sep 7, 2026 • Age: 9 hours

現在のステータス

高度 497.1 km
遠地点 / 近地点 N/A
速度 7.62 km/s
衛星直下点 -57.12°S, 156.63°W
打ち上げ日 Nov 8, 2015
運用期間 10.8 years
タイプ military

技術仕様

分類 Payload
質量 3000.00 kg
乾燥質量 3000.00 kg
総質量 3000.00 kg
長さ 2.00 m
直径 2.00 m
スパン 8.00 m
形状 Box + 2 Pan
製造者 CAST
バスタイプ JB-11
フェーズステータス In Orbit
所有者/国 ZZB/CN

Most Searched